Погода в Марабе

Бразилия     5°21′06″S   49°06′16″W
темп.,
°C
ветер,
м/с
пор.,
м/с
влажн.,
%
обл.,
%
осадки,
мм/ч
давл.,
гПа
погр.,
м
1 марта, пн
пн100:00+23ссв0198100 1.7 100823
03:00+22ссв1299100 6.6 100782
06:00+22ссв11100100 33.6 100777
09:00+22ссв13100100 83.6 1010186
12:00+24с1398100 13.4 1010281
15:00+24с1398100 20.7 1007270
18:00+22ссв1299100 4.8 100790
21:00+22сз15100100 5.2 1009194
2 марта, вт
вт200:00+22зсз0199100 0.0 101023
03:00+21юз1199100 0.2 100824
06:00+21ю1110099 0.0 101033
09:00+23ю0193100 0.0 1012289
12:00+30ююв1264100 0.1 1011919
15:00+26ю129377 4.3 1007480
18:00+25ю1197100 4.3 100825
21:00+23с1399100 8.7 1011106
3 марта, ср
ср300:00+22ссз1199100 1.1 101248
03:00+21ссз119997 1.5 101123
06:00+21сз019881 0.3 101223
09:00+25ююз008678 0.3 1014369
12:00+28с127682 1.4 1013962
15:00+27всв118989 6.4 1009393
18:00+25ссв1195100 4.6 101024
21:00+23в1197100 4.6 101223
4 марта, чт
чт400:00+22в1198100 0.0 101323
03:00+22св1199100 0.0 101223
06:00+21в019999 0.0 101223
09:00+27ссв018074 0.0 1014439
12:00+31ссз126556 0.4 10121351
15:00+29зсз118361 3.4 1009647
18:00+26в009496 2.7 100824
21:00+23всв119798 4.4 101124
5 марта, пт
пт500:00+23в1297100 4.7 101259
03:00+22юв1299100 8.3 101097
06:00+22ююв11100100 0.8 101023
09:00+26ююв018893 0.8 1013344
12:00+33ссв015715 2.8 10111110
15:00+33с025626 3.8 10071587
18:00+26ююв129582 3.5 100732
21:00+24вюв129691 5.4 101024